Time,TemperatureF,DewpointF,PressureIn,WindDirection,WindDirectionDegrees,WindSpeedMPH,WindSpeedGustMPH,Humidity,HourlyPrecipIn,Conditions,Clouds,dailyrainin,SoftwareType,DateUTC
2013-06-03 00:01:00,63.7,59.7,29.97,NNW,338,4.6,4.6,87,0.00,CLR,CLR,0.00,WeatherDisplay:10.37,2013-06-03 04:01:00,
2013-06-03 00:02:00,63.7,59.7,29.97,NW,315,4.6,4.6,87,0.00,CLR,CLR,0.00,WeatherDisplay:10.37,2013-06-03 04:02:00,
2013-06-03 00:03:00,63.5,59.6,29.97,NNW,338,3.5,3.5,87,0.00,CLR,CLR,0.00,WeatherDisplay:10.37,2013-06-03 04:03:00,
2013-06-03 00:08:00,63.3,59.4,29.97,NNW,338,3.5,3.5,87,0.00,CLR,CLR,0.00,WeatherDisplay:10.37,2013-06-03 04:08:00,
2013-06-03 00:13:00,63.3,59.7,29.97,WNW,292,3.5,3.5,88,0.00,CLR,CLR,0.00,WeatherDisplay:10.37,2013-06-03 04:13:00,
2013-06-03 00:18:00,63.0,59.0,29.97,NNW,338,4.6,4.6,87,0.00,CLR,CLR,0.00,WeatherDisplay:10.37,2013-06-03 04:18:00,
2013-06-03 00:24:00,62.8,59.2,29.97,NNW,338,3.5,3.5,88,0.00,CLR,CLR,0.00,WeatherDisplay:10.37,2013-06-03 04:24:00,
2013-06-03 00:29:00,62.4,58.8,29.97,WNW,292,1.2,1.2,88,0.00,CLR,CLR,0.00,WeatherDisplay:10.37,2013-06-03 04:29:00,
2013-06-03 00:34:00,62.6,59.3,29.97,NNW,338,3.6,3.6,89,0.00,CLR,CLR,0.00,WeatherDisplay:10.37,2013-06-03 04:34:00,
2013-06-03 00:39:00,62.4,59.1,29.97,NNW,338,2.3,2.4,89,0.00,CLR,CLR,0.00,WeatherDisplay:10.37,2013-06-03 04:39:00,
2013-06-03 00:45:00,62.6,59.3,29.97,NNW,338,3.8,3.8,89,0.00,CLR,CLR,0.00,WeatherDisplay:10.37,2013-06-03 04:45:00,
2013-06-03 00:50:00,62.8,59.5,29.97,WNW,292,6.9,6.9,89,0.00,CLR,CLR,0.00,WeatherDisplay:10.37,2013-06-03 04:50:00,
2013-06-03 00:55:00,63.0,59.3,29.97,NNW,338,4.6,4.6,88,0.00,CLR,CLR,0.00,WeatherDisplay:10.37,2013-06-03 04:55:00,
2013-06-03 01:00:00,62.8,59.2,29.97,NW,315,4.6,4.6,88,0.00,CLR,CLR,0.00,WeatherDisplay:10.37,2013-06-03 05:00:00,
2013-06-03 01:05:00,62.8,58.9,29.97,WNW,292,4.6,4.6,87,0.00,CLR,CLR,0.00,WeatherDisplay:10.37,2013-06-03 05:05:00,
2013-06-03 01:11:00,62.6,58.7,29.97,WNW,292,4.3,4.3,87,0.00,CLR,CLR,0.00,WeatherDisplay:10.37,2013-06-03 05:11:00,
2013-06-03 01:16:00,62.2,58.3,29.97,NNW,338,5.8,5.8,87,0.00,CLR,CLR,0.00,WeatherDisplay:10.37,2013-06-03 05:16:00,
2013-06-03 01:21:00,62.1,58.1,29.97,NNW,338,3.5,3.5,87,0.00,CLR,CLR,0.00,WeatherDisplay:10.37,2013-06-03 05:21:00,
2013-06-03 01:27:00,61.7,58.1,29.97,NNW,338,2.3,2.3,88,0.00,CLR,CLR,0.00,WeatherDisplay:10.37,2013-06-03 05:27:00,
2013-06-03 01:32:00,61.7,58.1,29.97,WNW,292,3.5,3.5,88,0.00,CLR,CLR,0.00,WeatherDisplay:10.37,2013-06-03 05:32:00,
2013-06-03 01:37:00,61.7,58.1,29.97,NNW,338,5.8,5.8,88,0.00,CLR,CLR,0.00,WeatherDisplay:10.37,2013-06-03 05:37:00,
2013-06-03 01:42:00,61.7,58.1,29.97,WNW,292,5.8,5.8,88,0.00,CLR,CLR,0.00,WeatherDisplay:10.37,2013-06-03 05:42:00,
2013-06-03 01:47:00,61.5,57.9,29.97,WNW,292,2.3,2.9,88,0.00,CLR,CLR,0.00,WeatherDisplay:10.37,2013-06-03 05:47:00,
2013-06-03 01:52:00,61.3,57.4,29.97,NW,315,5.8,5.8,87,0.00,CLR,CLR,0.00,WeatherDisplay:10.37,2013-06-03 05:52:00,
2013-06-03 01:58:00,61.5,57.6,29.97,NNW,338,5.8,5.8,87,0.00,CLR,CLR,0.00,WeatherDisplay:10.37,2013-06-03 05:58:00,
2013-06-03 02:03:00,61.5,57.0,29.97,WNW,292,5.8,5.8,85,0.00,CLR,CLR,0.00,WeatherDisplay:10.37,2013-06-03 06:03:00,
2013-06-03 02:08:00,61.5,57.0,30.00,NW,315,3.5,3.5,85,0.00,CLR,CLR,0.00,WeatherDisplay:10.37,2013-06-03 06:08:00,
2013-06-03 02:13:00,61.5,57.0,30.00,NNE,22,5.8,5.8,85,0.00,CLR,CLR,0.00,WeatherDisplay:10.37,2013-06-03 06:13:00,
2013-06-03 02:18:00,61.5,57.0,30.00,WNW,292,7.4,7.4,85,0.00,CLR,CLR,0.00,WeatherDisplay:10.37,2013-06-03 06:18:00,
2013-06-03 02:24:00,61.5,56.6,29.97,NNW,338,5.8,5.8,84,0.00,CLR,CLR,0.00,WeatherDisplay:10.37,2013-06-03 06:24:00,
2013-06-03 02:29:00,61.5,56.6,29.97,WNW,292,5.8,6.0,84,0.00,CLR,CLR,0.00,WeatherDisplay:10.37,2013-06-03 06:29:00,
2013-06-03 02:34:00,61.5,56.6,29.97,NNW,338,5.8,5.8,84,0.00,CLR,CLR,0.00,WeatherDisplay:10.37,2013-06-03 06:34:00,
2013-06-03 02:39:00,61.5,56.6,29.97,WNW,292,5.9,5.9,84,0.00,CLR,CLR,0.00,WeatherDisplay:10.37,2013-06-03 06:39:00,
2013-06-03 02:44:00,61.3,56.8,29.97,NNW,338,3.5,3.5,85,0.00,CLR,CLR,0.00,WeatherDisplay:10.37,2013-06-03 06:44:00,
2013-06-03 02:49:00,61.3,56.5,29.97,WNW,292,5.8,5.8,84,0.00,CLR,CLR,0.00,WeatherDisplay:10.37,2013-06-03 06:49:00,
2013-06-03 02:55:00,61.2,56.3,29.97,NNW,338,5.8,5.8,84,0.00,CLR,CLR,0.00,WeatherDisplay:10.37,2013-06-03 06:55:00,
2013-06-03 03:00:00,61.0,56.4,29.97,WNW,292,3.6,3.6,85,0.00,CLR,CLR,0.00,WeatherDisplay:10.37,2013-06-03 07:00:00,
2013-06-03 03:05:00,60.6,56.4,29.97,NNW,338,3.5,3.5,86,0.00,CLR,CLR,0.00,WeatherDisplay:10.37,2013-06-03 07:05:00,
2013-06-03 03:10:00,60.6,56.7,29.97,WNW,292,3.5,4.0,87,0.00,CLR,CLR,0.00,WeatherDisplay:10.37,2013-06-03 07:10:00,
2013-06-03 03:15:00,60.6,56.7,29.97,NNW,338,5.8,5.8,87,0.00,CLR,CLR,0.00,WeatherDisplay:10.37,2013-06-03 07:15:00,
2013-06-03 03:20:00,60.6,56.7,29.97,WNW,292,5.8,5.8,87,0.00,CLR,CLR,0.00,WeatherDisplay:10.37,2013-06-03 07:20:00,
2013-06-03 03:26:00,60.4,56.6,29.97,WNW,292,6.9,6.9,87,0.00,CLR,CLR,0.00,WeatherDisplay:10.37,2013-06-03 07:26:00,
2013-06-03 03:31:00,60.4,56.6,29.97,WNW,292,3.5,3.8,87,0.00,CLR,CLR,0.00,WeatherDisplay:10.37,2013-06-03 07:31:00,
2013-06-03 03:36:00,60.3,56.7,29.97,NNW,338,9.2,9.2,88,0.00,CLR,CLR,0.00,WeatherDisplay:10.37,2013-06-03 07:36:00,
2013-06-03 03:41:00,60.3,56.7,29.97,WSW,248,4.6,4.6,88,0.00,CLR,CLR,0.00,WeatherDisplay:10.37,2013-06-03 07:41:00,
2013-06-03 03:47:00,60.3,56.7,29.97,WNW,292,5.8,5.8,88,0.00,CLR,CLR,0.00,WeatherDisplay:10.37,2013-06-03 07:47:00,
2013-06-03 03:52:00,60.1,56.5,29.97,NNW,338,5.8,5.8,88,0.00,CLR,CLR,0.00,WeatherDisplay:10.37,2013-06-03 07:52:00,
2013-06-03 03:57:00,60.1,56.5,29.97,WNW,292,4.6,4.6,88,0.00,CLR,CLR,0.00,WeatherDisplay:10.37,2013-06-03 07:57:00,
2013-06-03 04:02:00,60.1,56.5,29.97,NNW,338,6.9,6.9,88,0.00,CLR,CLR,0.00,WeatherDisplay:10.37,2013-06-03 08:02:00,
2013-06-03 04:08:00,59.9,56.3,29.97,NNW,338,5.6,5.6,88,0.00,CLR,CLR,0.00,WeatherDisplay:10.37,2013-06-03 08:08:00,
2013-06-03 04:13:00,59.9,57.0,29.97,NNW,338,4.6,4.6,90,0.00,CLR,CLR,0.00,WeatherDisplay:10.37,2013-06-03 08:13:00,
2013-06-03 04:18:00,59.7,56.5,29.97,NNW,338,4.6,4.6,89,0.00,CLR,CLR,0.00,WeatherDisplay:10.37,2013-06-03 08:18:00,
2013-06-03 04:23:00,59.9,57.0,29.97,NNW,338,6.9,6.9,90,0.00,CLR,CLR,0.00,WeatherDisplay:10.37,2013-06-03 08:23:00,
2013-06-03 04:29:00,59.9,57.0,29.97,NNW,338,5.8,5.8,90,0.00,CLR,CLR,0.00,WeatherDisplay:10.37,2013-06-03 08:29:00,
2013-06-03 04:34:00,59.9,56.6,29.97,SSE,158,5.8,5.8,89,0.00,CLR,CLR,0.00,WeatherDisplay:10.37,2013-06-03 08:34:00,
2013-06-03 04:39:00,59.9,56.6,30.00,NNW,338,5.8,5.8,89,0.00,CLR,CLR,0.00,WeatherDisplay:10.37,2013-06-03 08:39:00,
2013-06-03 04:44:00,59.9,56.6,30.00,NNW,338,9.2,9.2,89,0.00,CLR,CLR,0.00,WeatherDisplay:10.37,2013-06-03 08:44:00,
2013-06-03 04:50:00,59.7,56.5,30.00,NNW,338,6.9,6.9,89,0.00,CLR,CLR,0.00,WeatherDisplay:10.37,2013-06-03 08:50:00,
2013-06-03 04:55:00,59.5,56.0,30.00,WNW,292,5.9,5.9,88,0.00,CLR,CLR,0.00,WeatherDisplay:10.37,2013-06-03 08:55:00,
2013-06-03 05:00:00,59.4,55.8,30.00,West,270,6.9,6.9,88,0.00,CLR,CLR,0.00,WeatherDisplay:10.37,2013-06-03 09:00:00,
2013-06-03 05:05:00,59.4,55.8,30.00,NNW,338,4.6,4.6,88,0.00,CLR,CLR,0.00,WeatherDisplay:10.37,2013-06-03 09:05:00,
2013-06-03 05:10:00,59.2,55.6,30.00,WNW,292,3.5,3.5,88,0.00,CLR,CLR,0.00,WeatherDisplay:10.37,2013-06-03 09:10:00,
2013-06-03 05:15:00,59.2,55.9,30.00,WNW,292,5.6,5.6,89,0.00,CLR,CLR,0.00,WeatherDisplay:10.37,2013-06-03 09:15:00,
2013-06-03 05:20:00,59.0,55.4,30.00,WNW,292,4.6,4.6,88,0.00,CLR,CLR,0.00,WeatherDisplay:10.37,2013-06-03 09:20:00,
2013-06-03 05:26:00,59.0,55.8,30.00,NNW,338,4.6,4.6,89,0.00,CLR,CLR,0.00,WeatherDisplay:10.37,2013-06-03 09:26:00,
2013-06-03 05:31:00,59.0,55.8,30.00,WNW,292,5.8,5.8,89,0.00,CLR,CLR,0.00,WeatherDisplay:10.37,2013-06-03 09:31:00,
2013-06-03 05:36:00,58.8,55.6,30.00,WNW,292,5.8,5.8,89,0.00,CLR,CLR,0.00,WeatherDisplay:10.37,2013-06-03 09:36:00,
2013-06-03 05:42:00,58.8,55.6,30.00,WNW,292,5.8,5.8,89,0.00,CLR,CLR,0.00,WeatherDisplay:10.37,2013-06-03 09:42:00,
2013-06-03 05:47:00,58.8,55.3,30.00,NNW,338,3.5,3.5,88,0.00,CLR,CLR,0.00,WeatherDisplay:10.37,2013-06-03 09:47:00,
2013-06-03 05:52:00,58.8,55.3,30.00,NNW,338,4.6,4.6,88,0.00,CLR,CLR,0.00,WeatherDisplay:10.37,2013-06-03 09:52:00,
2013-06-03 05:57:00,58.8,55.3,30.00,NNW,338,2.4,2.4,88,0.00,CLR,CLR,0.00,WeatherDisplay:10.37,2013-06-03 09:57:00,
2013-06-03 06:02:00,58.8,55.3,30.00,NNE,22,4.6,4.6,88,0.00,CLR,CLR,0.00,WeatherDisplay:10.37,2013-06-03 10:02:00,
2013-06-03 06:08:00,58.6,54.8,30.00,NNW,338,5.8,5.8,87,0.00,CLR,CLR,0.00,WeatherDisplay:10.37,2013-06-03 10:08:00,
2013-06-03 06:13:00,58.5,54.6,30.00,WNW,292,4.6,4.6,87,0.00,CLR,CLR,0.00,WeatherDisplay:10.37,2013-06-03 10:13:00,
2013-06-03 06:18:00,58.5,54.6,30.00,NNW,338,2.3,2.3,87,0.00,CLR,CLR,0.00,WeatherDisplay:10.37,2013-06-03 10:18:00,
2013-06-03 06:23:00,58.5,54.6,30.03,NNW,338,4.6,4.6,87,0.00,CLR,CLR,0.00,WeatherDisplay:10.37,2013-06-03 10:23:00,
2013-06-03 06:28:00,58.5,54.6,30.03,NNW,338,4.6,4.6,87,0.00,CLR,CLR,0.00,WeatherDisplay:10.37,2013-06-03 10:28:00,
2013-06-03 06:34:00,58.3,54.4,30.03,NNW,338,5.8,5.8,87,0.00,CLR,CLR,0.00,WeatherDisplay:10.37,2013-06-03 10:34:00,
2013-06-03 06:39:00,58.3,54.4,30.00,WNW,292,3.5,3.5,87,0.00,CLR,CLR,0.00,WeatherDisplay:10.37,2013-06-03 10:39:00,
2013-06-03 06:44:00,58.3,54.4,30.00,NNW,338,3.5,3.5,87,0.00,CLR,CLR,0.00,WeatherDisplay:10.37,2013-06-03 10:44:00,
2013-06-03 06:49:00,58.3,54.1,30.00,WNW,292,5.8,5.8,86,0.00,CLR,CLR,0.00,WeatherDisplay:10.37,2013-06-03 10:49:00,
2013-06-03 06:54:00,58.1,53.9,30.00,NNW,338,5.8,5.8,86,0.00,CLR,CLR,0.00,WeatherDisplay:10.37,2013-06-03 10:54:00,
2013-06-03 06:59:00,58.1,53.9,30.00,NNW,338,4.6,4.6,86,0.00,CLR,CLR,0.00,WeatherDisplay:10.37,2013-06-03 10:59:00,
2013-06-03 07:05:00,58.1,53.9,30.00,NNW,338,5.8,5.8,86,0.00,CLR,CLR,0.00,WeatherDisplay:10.37,2013-06-03 11:05:00,
2013-06-03 07:10:00,58.1,53.9,30.00,NNW,338,5.8,5.8,86,0.00,CLR,CLR,0.00,WeatherDisplay:10.37,2013-06-03 11:10:00,
2013-06-03 07:15:00,58.3,54.1,30.00,WNW,292,3.5,3.5,86,0.00,CLR,CLR,0.00,WeatherDisplay:10.37,2013-06-03 11:15:00,
2013-06-03 07:20:00,58.3,54.1,30.00,NNW,338,4.6,4.6,86,0.00,CLR,CLR,0.00,WeatherDisplay:10.37,2013-06-03 11:20:00,
2013-06-03 07:25:00,58.3,54.1,30.00,WNW,292,4.6,4.6,86,0.00,CLR,CLR,0.00,WeatherDisplay:10.37,2013-06-03 11:25:00,
2013-06-03 07:30:00,58.1,53.6,30.00,NNW,338,5.8,5.8,85,0.00,CLR,CLR,0.00,WeatherDisplay:10.37,2013-06-03 11:30:00,
2013-06-03 07:35:00,58.1,53.6,30.03,SW,225,9.2,9.2,85,0.00,CLR,CLR,0.00,WeatherDisplay:10.37,2013-06-03 11:35:00,
2013-06-03 07:41:00,58.1,53.6,30.03,WNW,292,5.8,5.8,85,0.00,CLR,CLR,0.00,WeatherDisplay:10.37,2013-06-03 11:41:00,
2013-06-03 07:46:00,58.3,54.1,30.03,NNW,338,3.1,3.1,86,0.00,CLR,CLR,0.00,WeatherDisplay:10.37,2013-06-03 11:46:00,
2013-06-03 07:51:00,58.5,54.0,30.00,NNW,338,5.8,5.8,85,0.00,CLR,CLR,0.00,WeatherDisplay:10.37,2013-06-03 11:51:00,
2013-06-03 07:56:00,58.8,54.0,30.00,NNW,338,5.8,5.8,84,0.00,CLR,CLR,0.00,WeatherDisplay:10.37,2013-06-03 11:56:00,
2013-06-03 08:01:00,58.8,54.0,30.00,NNW,338,5.8,5.8,84,0.00,CLR,CLR,0.00,WeatherDisplay:10.37,2013-06-03 12:01:00,
2013-06-03 08:07:00,59.2,54.3,30.00,NNE,22,3.5,3.5,84,0.00,CLR,CLR,0.00,WeatherDisplay:10.37,2013-06-03 12:07:00,
2013-06-03 08:12:00,59.2,54.0,30.00,WNW,292,5.8,5.8,83,0.00,CLR,CLR,0.00,WeatherDisplay:10.37,2013-06-03 12:12:00,
2013-06-03 08:17:00,59.4,54.5,30.00,WNW,292,4.6,4.6,84,0.00,CLR,CLR,0.00,WeatherDisplay:10.37,2013-06-03 12:17:00,
2013-06-03 08:22:00,59.4,54.5,30.03,WNW,292,6.9,6.9,84,0.00,CLR,CLR,0.00,WeatherDisplay:10.37,2013-06-03 12:22:00,
2013-06-03 08:27:00,59.7,54.9,30.03,ENE,68,4.6,4.6,84,0.00,CLR,CLR,0.00,WeatherDisplay:10.37,2013-06-03 12:27:00,
2013-06-03 08:33:00,59.9,55.1,30.03,NNW,338,5.8,5.8,84,0.00,CLR,CLR,0.00,WeatherDisplay:10.37,2013-06-03 12:33:00,
2013-06-03 08:38:00,60.3,55.1,30.03,WNW,292,3.5,3.5,83,0.00,CLR,CLR,0.00,WeatherDisplay:10.37,2013-06-03 12:38:00,
2013-06-03 08:43:00,60.6,55.1,30.03,NNE,22,8.1,8.1,82,0.00,CLR,CLR,0.00,WeatherDisplay:10.37,2013-06-03 12:43:00,
2013-06-03 08:48:00,61.0,55.4,30.03,NNW,338,3.6,3.6,82,0.00,CLR,CLR,0.00,WeatherDisplay:10.37,2013-06-03 12:48:00,
2013-06-03 08:54:00,61.3,55.8,30.03,NNW,338,4.7,4.7,82,0.00,CLR,CLR,0.00,WeatherDisplay:10.37,2013-06-03 12:54:00,
2013-06-03 08:59:00,61.9,55.6,30.03,WNW,292,5.8,5.8,80,0.00,CLR,CLR,0.00,WeatherDisplay:10.37,2013-06-03 12:59:00,
2013-06-03 09:04:00,62.4,55.8,30.03,WNW,292,4.6,4.6,79,0.00,CLR,CLR,0.00,WeatherDisplay:10.37,2013-06-03 13:04:00,
2013-06-03 09:09:00,62.6,55.6,30.03,WNW,292,1.4,1.4,78,0.00,CLR,CLR,0.00,WeatherDisplay:10.37,2013-06-03 13:09:00,
2013-06-03 09:14:00,63.3,56.0,30.03,ESE,112,4.6,4.6,77,0.00,CLR,CLR,0.00,WeatherDisplay:10.37,2013-06-03 13:14:00,
2013-06-03 09:19:00,63.7,56.0,30.03,NNW,338,3.5,3.5,76,0.00,CLR,CLR,0.00,WeatherDisplay:10.37,2013-06-03 13:19:00,
2013-06-03 09:24:00,64.2,55.8,30.03,SSW,202,3.5,3.5,74,0.00,CLR,CLR,0.00,WeatherDisplay:10.37,2013-06-03 13:24:00,
2013-06-03 09:30:00,64.0,55.2,30.03,NNW,338,5.8,5.8,73,0.00,CLR,CLR,0.00,WeatherDisplay:10.37,2013-06-03 13:30:00,
2013-06-03 09:35:00,63.9,55.8,30.03,WNW,292,4.6,4.6,75,0.00,CLR,CLR,0.00,WeatherDisplay:10.37,2013-06-03 13:35:00,
2013-06-03 09:40:00,63.9,55.0,30.03,WNW,292,4.6,4.6,73,0.00,CLR,CLR,0.00,WeatherDisplay:10.37,2013-06-03 13:40:00,
2013-06-03 09:45:00,63.7,55.2,30.03,NNW,338,5.8,5.8,74,0.00,CLR,CLR,0.00,WeatherDisplay:10.37,2013-06-03 13:45:00,
2013-06-03 09:50:00,63.0,53.8,30.03,NNW,338,8.1,8.1,72,0.00,CLR,CLR,0.00,WeatherDisplay:10.37,2013-06-03 13:50:00,
2013-06-03 09:55:00,62.4,54.4,30.03,SSE,158,3.5,3.5,75,0.00,CLR,CLR,0.00,WeatherDisplay:10.37,2013-06-03 13:55:00,
2013-06-03 10:00:00,62.6,54.9,30.03,NNW,338,4.6,4.6,76,0.00,CLR,CLR,0.00,WeatherDisplay:10.37,2013-06-03 14:00:00,
2013-06-03 10:05:00,62.2,54.9,30.03,WNW,292,5.8,5.8,77,0.00,CLR,CLR,0.00,WeatherDisplay:10.37,2013-06-03 14:05:00,
2013-06-03 10:10:00,62.4,55.5,30.03,NNW,338,5.8,5.8,78,0.00,CLR,CLR,0.00,WeatherDisplay:10.37,2013-06-03 14:10:00,
2013-06-03 10:16:00,62.1,54.4,30.03,NNW,338,4.6,4.6,76,0.00,CLR,CLR,0.00,WeatherDisplay:10.37,2013-06-03 14:16:00,
2013-06-03 10:21:00,61.7,54.8,30.03,SSW,202,5.8,5.8,78,0.00,CLR,CLR,0.00,WeatherDisplay:10.37,2013-06-03 14:21:00,
2013-06-03 10:27:00,61.9,54.6,30.03,NNE,22,3.5,3.5,77,0.00,CLR,CLR,0.00,WeatherDisplay:10.37,2013-06-03 14:27:00,
2013-06-03 10:32:00,62.1,54.8,30.03,NNE,22,8.1,8.1,77,0.00,CLR,CLR,0.00,WeatherDisplay:10.37,2013-06-03 14:32:00,
2013-06-03 10:37:00,62.2,54.9,30.03,WNW,292,5.8,5.8,77,0.00,CLR,CLR,0.00,WeatherDisplay:10.37,2013-06-03 14:37:00,
2013-06-03 10:42:00,62.8,55.1,30.03,WNW,292,5.8,5.8,76,0.00,CLR,CLR,0.00,WeatherDisplay:10.37,2013-06-03 14:42:00,
2013-06-03 10:47:00,64.6,56.5,30.03,NNE,22,5.4,5.4,75,0.00,CLR,CLR,0.00,WeatherDisplay:10.37,2013-06-03 14:47:00,
2013-06-03 10:53:00,64.8,55.5,30.03,North,0,4.6,4.6,72,0.00,CLR,CLR,0.00,WeatherDisplay:10.37,2013-06-03 14:53:00,
2013-06-03 10:58:00,64.0,54.8,30.03,NNE,22,3.5,3.5,72,0.00,CLR,CLR,0.00,WeatherDisplay:10.37,2013-06-03 14:58:00,
2013-06-03 11:03:00,64.4,54.8,30.03,SSE,158,3.5,3.5,71,0.00,CLR,CLR,0.00,WeatherDisplay:10.37,2013-06-03 15:03:00,
2013-06-03 11:08:00,65.1,55.1,30.03,NNW,338,5.8,5.8,70,0.00,CLR,CLR,0.00,WeatherDisplay:10.37,2013-06-03 15:08:00,
2013-06-03 11:13:00,65.5,55.4,30.03,SSE,158,3.5,3.5,70,0.00,CLR,CLR,0.00,WeatherDisplay:10.37,2013-06-03 15:13:00,
2013-06-03 11:18:00,65.5,55.0,30.03,NNW,338,2.3,2.3,69,0.00,CLR,CLR,0.00,WeatherDisplay:10.37,2013-06-03 15:18:00,
2013-06-03 11:23:00,65.1,55.1,30.06,ENE,68,3.6,3.6,70,0.00,CLR,CLR,0.00,WeatherDisplay:10.37,2013-06-03 15:23:00,
2013-06-03 11:29:00,66.0,56.0,30.06,NNW,338,2.3,2.3,70,0.00,CLR,CLR,0.00,WeatherDisplay:10.37,2013-06-03 15:29:00,
2013-06-03 11:34:00,66.0,55.2,30.06,NNW,338,5.8,5.8,68,0.00,CLR,CLR,0.00,WeatherDisplay:10.37,2013-06-03 15:34:00,
2013-06-03 11:39:00,66.0,55.6,30.06,NNW,338,4.0,4.0,69,0.00,CLR,CLR,0.00,WeatherDisplay:10.37,2013-06-03 15:39:00,
2013-06-03 11:44:00,65.1,54.7,30.06,WNW,292,5.8,5.8,69,0.00,CLR,CLR,0.00,WeatherDisplay:10.37,2013-06-03 15:44:00,
2013-06-03 11:49:00,64.8,54.7,30.06,NNE,22,4.6,4.6,70,0.00,CLR,CLR,0.00,WeatherDisplay:10.37,2013-06-03 15:49:00,
2013-06-03 11:54:00,63.9,53.9,30.06,SE,135,3.6,3.6,70,0.00,CLR,CLR,0.00,WeatherDisplay:10.37,2013-06-03 15:54:00,
2013-06-03 11:59:00,64.0,54.4,30.06,NNW,338,4.6,4.6,71,0.00,CLR,CLR,0.00,WeatherDisplay:10.37,2013-06-03 15:59:00,
2013-06-03 12:05:00,64.0,54.8,30.06,NNW,338,4.7,4.7,72,0.00,CLR,CLR,0.00,WeatherDisplay:10.37,2013-06-03 16:05:00,
2013-06-03 12:10:00,63.9,54.7,30.06,NNW,338,6.4,6.4,72,0.00,CLR,CLR,0.00,WeatherDisplay:10.37,2013-06-03 16:10:00,
2013-06-03 12:15:00,63.3,54.1,30.06,NNW,338,10.5,10.5,72,0.00,CLR,CLR,0.00,WeatherDisplay:10.37,2013-06-03 16:15:00,
2013-06-03 12:20:00,64.0,55.2,30.06,WNW,292,5.8,5.8,73,0.00,CLR,CLR,0.00,WeatherDisplay:10.37,2013-06-03 16:20:00,
2013-06-03 12:26:00,65.3,56.0,30.06,WNW,292,5.8,5.8,72,0.00,CLR,CLR,0.00,WeatherDisplay:10.37,2013-06-03 16:26:00,
2013-06-03 12:31:00,65.3,55.3,30.06,NNW,338,5.8,5.8,70,0.00,CLR,CLR,0.00,WeatherDisplay:10.37,2013-06-03 16:31:00,
2013-06-03 12:36:00,65.8,56.2,30.06,NNW,338,3.6,3.6,71,0.00,CLR,CLR,0.00,WeatherDisplay:10.37,2013-06-03 16:36:00,
2013-06-03 12:41:00,65.5,55.0,30.06,WNW,292,9.2,9.2,69,0.00,CLR,CLR,0.00,WeatherDisplay:10.37,2013-06-03 16:41:00,
2013-06-03 12:47:00,65.1,54.3,30.06,WNW,292,8.1,8.1,68,0.00,CLR,CLR,0.00,WeatherDisplay:10.37,2013-06-03 16:47:00,
2013-06-03 12:52:00,65.3,54.1,30.06,NW,315,6.9,6.9,67,0.00,CLR,CLR,0.00,WeatherDisplay:10.37,2013-06-03 16:52:00,
2013-06-03 12:57:00,66.0,54.7,30.06,NNW,338,5.8,5.8,67,0.00,CLR,CLR,0.00,WeatherDisplay:10.37,2013-06-03 16:57:00,
2013-06-03 13:02:00,66.4,54.3,30.06,NNW,338,9.2,9.2,65,0.00,CLR,CLR,0.00,WeatherDisplay:10.37,2013-06-03 17:02:00,
2013-06-03 13:08:00,66.2,53.7,30.06,ENE,68,5.8,5.8,64,0.00,CLR,CLR,0.00,WeatherDisplay:10.37,2013-06-03 17:08:00,
2013-06-03 13:13:00,66.6,54.4,30.06,ENE,68,5.8,5.8,65,0.00,CLR,CLR,0.00,WeatherDisplay:10.37,2013-06-03 17:13:00,
2013-06-03 13:18:00,66.4,53.8,30.06,NNW,338,5.8,5.8,64,0.00,CLR,CLR,0.00,WeatherDisplay:10.37,2013-06-03 17:18:00,
2013-06-03 13:23:00,66.6,54.0,30.06,NNE,22,3.5,3.5,64,0.00,CLR,CLR,0.00,WeatherDisplay:10.37,2013-06-03 17:23:00,
2013-06-03 13:28:00,66.4,53.8,30.06,WNW,292,6.9,6.9,64,0.00,CLR,CLR,0.00,WeatherDisplay:10.37,2013-06-03 17:28:00,
2013-06-03 13:33:00,67.1,54.9,30.06,WNW,292,4.6,4.6,65,0.00,CLR,CLR,0.00,WeatherDisplay:10.37,2013-06-03 17:33:00,
2013-06-03 13:38:00,67.3,53.8,30.06,ENE,68,3.5,3.5,62,0.00,CLR,CLR,0.00,WeatherDisplay:10.37,2013-06-03 17:38:00,
2013-06-03 13:43:00,69.3,54.8,30.06,WNW,292,4.6,4.6,60,0.00,CLR,CLR,0.00,WeatherDisplay:10.37,2013-06-03 17:43:00,
2013-06-03 13:48:00,69.6,54.2,30.06,WNW,292,8.1,8.1,58,0.00,CLR,CLR,0.00,WeatherDisplay:10.37,2013-06-03 17:48:00,
2013-06-03 13:54:00,70.0,53.6,30.06,West,270,5.8,5.8,56,0.00,CLR,CLR,0.00,WeatherDisplay:10.37,2013-06-03 17:54:00,
2013-06-03 13:59:00,70.0,54.0,30.06,WNW,292,4.3,4.3,57,0.00,CLR,CLR,0.00,WeatherDisplay:10.37,2013-06-03 17:59:00,
2013-06-03 14:04:00,69.6,53.7,30.06,SW,225,5.8,5.8,57,0.00,CLR,CLR,0.00,WeatherDisplay:10.37,2013-06-03 18:04:00,
2013-06-03 14:09:00,69.1,53.2,30.06,WNW,292,4.6,4.6,57,0.00,CLR,CLR,0.00,WeatherDisplay:10.37,2013-06-03 18:09:00,
2013-06-03 14:15:00,69.3,53.4,30.06,SSE,158,3.5,3.5,57,0.00,CLR,CLR,0.00,WeatherDisplay:10.37,2013-06-03 18:15:00,
2013-06-03 14:20:00,68.0,52.7,30.06,NNW,338,4.9,4.9,58,0.00,CLR,CLR,0.00,WeatherDisplay:10.37,2013-06-03 18:20:00,
2013-06-03 14:25:00,66.2,51.0,30.03,NNW,338,10.4,10.4,58,0.00,CLR,CLR,0.00,WeatherDisplay:10.37,2013-06-03 18:25:00,
2013-06-03 14:30:00,65.8,52.5,30.03,NW,315,6.9,7.1,62,0.00,CLR,CLR,0.00,WeatherDisplay:10.37,2013-06-03 18:30:00,
2013-06-03 14:35:00,65.5,52.5,30.03,WNW,292,7.4,7.4,63,0.00,CLR,CLR,0.00,WeatherDisplay:10.37,2013-06-03 18:35:00,
2013-06-03 14:40:00,65.3,52.8,30.03,NNW,338,5.8,5.8,64,0.00,CLR,CLR,0.00,WeatherDisplay:10.37,2013-06-03 18:40:00,
2013-06-03 14:46:00,65.1,52.6,30.03,NNW,338,9.2,9.2,64,0.00,CLR,CLR,0.00,WeatherDisplay:10.37,2013-06-03 18:46:00,
2013-06-03 14:51:00,65.1,52.2,30.06,WNW,292,9.2,9.2,63,0.00,CLR,CLR,0.00,WeatherDisplay:10.37,2013-06-03 18:51:00,
2013-06-03 14:56:00,65.5,53.4,30.06,NNW,338,6.0,6.0,65,0.00,CLR,CLR,0.00,WeatherDisplay:10.37,2013-06-03 18:56:00,
2013-06-03 15:02:00,65.7,54.0,30.06,NNW,338,7.8,7.8,66,0.00,CLR,CLR,0.00,WeatherDisplay:10.37,2013-06-03 19:02:00,
2013-06-03 15:07:00,65.7,53.6,30.06,NNW,338,6.9,6.9,65,0.00,CLR,CLR,0.00,WeatherDisplay:10.37,2013-06-03 19:07:00,
2013-06-03 15:12:00,65.7,52.7,30.06,NNW,338,4.6,4.6,63,0.00,CLR,CLR,0.00,WeatherDisplay:10.37,2013-06-03 19:12:00,
2013-06-03 15:17:00,65.8,53.3,30.06,WNW,292,5.8,5.8,64,0.00,CLR,CLR,0.00,WeatherDisplay:10.37,2013-06-03 19:17:00,
2013-06-03 15:22:00,66.0,53.5,30.06,WNW,292,6.7,6.7,64,0.00,CLR,CLR,0.00,WeatherDisplay:10.37,2013-06-03 19:22:00,
2013-06-03 15:27:00,65.7,53.1,30.06,WNW,292,5.8,5.8,64,0.00,CLR,CLR,0.00,WeatherDisplay:10.37,2013-06-03 19:27:00,
2013-06-03 15:33:00,66.0,53.5,30.06,SSE,158,4.6,4.6,64,0.00,CLR,CLR,0.00,WeatherDisplay:10.37,2013-06-03 19:33:00,
2013-06-03 15:38:00,66.0,53.1,30.03,WNW,292,5.8,5.8,63,0.00,CLR,CLR,0.00,WeatherDisplay:10.37,2013-06-03 19:38:00,
2013-06-03 15:43:00,67.1,54.1,30.03,NNW,338,3.5,3.5,63,0.00,CLR,CLR,0.00,WeatherDisplay:10.37,2013-06-03 19:43:00,
2013-06-03 15:48:00,67.5,52.6,30.03,WNW,292,5.9,5.9,59,0.00,CLR,CLR,0.00,WeatherDisplay:10.37,2013-06-03 19:48:00,
2013-06-03 15:54:00,67.6,52.3,30.06,NNW,338,5.8,5.8,58,0.00,CLR,CLR,0.00,WeatherDisplay:10.37,2013-06-03 19:54:00,
2013-06-03 15:59:00,69.1,53.7,30.06,NW,315,3.8,3.8,58,0.00,CLR,CLR,0.00,WeatherDisplay:10.37,2013-06-03 19:59:00,
2013-06-03 16:04:00,69.4,53.5,30.06,WNW,292,5.8,5.8,57,0.00,CLR,CLR,0.00,WeatherDisplay:10.37,2013-06-03 20:04:00,
2013-06-03 16:09:00,69.4,52.6,30.03,NNW,338,3.5,3.8,55,0.00,CLR,CLR,0.00,WeatherDisplay:10.37,2013-06-03 20:09:00,
2013-06-03 16:14:00,70.7,53.2,30.03,NNW,338,6.9,6.9,54,0.00,CLR,CLR,0.00,WeatherDisplay:10.37,2013-06-03 20:14:00,
2013-06-03 16:20:00,71.8,53.7,30.03,ENE,68,4.6,4.6,53,0.00,CLR,CLR,0.00,WeatherDisplay:10.37,2013-06-03 20:20:00,
2013-06-03 16:25:00,71.4,52.9,30.03,NNW,338,6.9,6.9,52,0.00,CLR,CLR,0.00,WeatherDisplay:10.37,2013-06-03 20:25:00,
2013-06-03 16:30:00,70.9,51.8,30.03,NW,315,4.6,4.6,51,0.00,CLR,CLR,0.00,WeatherDisplay:10.37,2013-06-03 20:30:00,
2013-06-03 16:35:00,71.1,52.0,30.03,NNW,338,3.5,3.5,51,0.00,CLR,CLR,0.00,WeatherDisplay:10.37,2013-06-03 20:35:00,
2013-06-03 16:41:00,70.5,51.0,30.00,NW,315,10.5,10.5,50,0.00,CLR,CLR,0.00,WeatherDisplay:10.37,2013-06-03 20:41:00,
2013-06-03 16:46:00,71.4,53.4,30.00,SSW,202,5.8,5.8,53,0.00,CLR,CLR,0.00,WeatherDisplay:10.37,2013-06-03 20:46:00,
2013-06-03 16:51:00,71.8,52.1,30.03,WNW,292,2.4,2.6,50,0.00,CLR,CLR,0.00,WeatherDisplay:10.37,2013-06-03 20:51:00,
2013-06-03 16:56:00,72.0,52.3,30.03,NNW,338,4.6,4.6,50,0.00,CLR,CLR,0.00,WeatherDisplay:10.37,2013-06-03 20:56:00,
2013-06-03 17:01:00,74.7,53.7,30.03,NNE,22,3.5,3.5,48,0.00,CLR,CLR,0.00,WeatherDisplay:10.37,2013-06-03 21:01:00,
2013-06-03 17:06:00,75.9,53.6,30.03,NNE,22,3.5,3.5,46,0.00,CLR,CLR,0.00,WeatherDisplay:10.37,2013-06-03 21:06:00,
2013-06-03 17:11:00,73.4,50.8,30.03,NNE,22,3.5,3.5,45,0.00,CLR,CLR,0.00,WeatherDisplay:10.37,2013-06-03 21:11:00,
2013-06-03 17:17:00,72.3,51.0,30.03,ESE,112,3.5,3.5,47,0.00,CLR,CLR,0.00,WeatherDisplay:10.37,2013-06-03 21:17:00,
2013-06-03 17:22:00,72.3,51.0,30.03,NE,45,2.3,2.3,47,0.00,CLR,CLR,0.00,WeatherDisplay:10.37,2013-06-03 21:22:00,
2013-06-03 17:27:00,72.1,50.8,30.03,SSE,158,3.5,3.5,47,0.00,CLR,CLR,0.00,WeatherDisplay:10.37,2013-06-03 21:27:00,
2013-06-03 17:32:00,71.4,50.1,30.03,NNW,338,3.5,3.5,47,0.00,CLR,CLR,0.00,WeatherDisplay:10.37,2013-06-03 21:32:00,
2013-06-03 17:37:00,70.9,49.6,30.00,WNW,292,2.6,2.6,47,0.00,CLR,CLR,0.00,WeatherDisplay:10.37,2013-06-03 21:37:00,
2013-06-03 17:43:00,70.2,49.0,30.00,NNW,338,3.5,3.5,47,0.00,CLR,CLR,0.00,WeatherDisplay:10.37,2013-06-03 21:43:00,
2013-06-03 17:48:00,69.4,48.9,30.00,West,270,3.5,3.5,48,0.00,CLR,CLR,0.00,WeatherDisplay:10.37,2013-06-03 21:48:00,
2013-06-03 17:53:00,68.7,48.8,30.03,NNW,338,4.9,4.9,49,0.00,CLR,CLR,0.00,WeatherDisplay:10.37,2013-06-03 21:53:00,
2013-06-03 17:58:00,70.9,50.8,30.03,WNW,292,4.6,4.6,49,0.00,CLR,CLR,0.00,WeatherDisplay:10.37,2013-06-03 21:58:00,
2013-06-03 18:03:00,71.6,50.3,30.03,ENE,68,5.8,5.8,47,0.00,CLR,CLR,0.00,WeatherDisplay:10.37,2013-06-03 22:03:00,
2013-06-03 18:08:00,71.2,50.0,30.03,WNW,292,4.6,4.6,47,0.00,CLR,CLR,0.00,WeatherDisplay:10.37,2013-06-03 22:08:00,
2013-06-03 18:13:00,72.0,49.5,30.03,WNW,292,5.8,5.8,45,0.00,CLR,CLR,0.00,WeatherDisplay:10.37,2013-06-03 22:13:00,
2013-06-03 18:18:00,72.1,49.6,30.03,NNW,338,8.7,8.7,45,0.00,CLR,CLR,0.00,WeatherDisplay:10.37,2013-06-03 22:18:00,
2013-06-03 18:24:00,71.2,48.8,30.03,West,270,6.2,6.2,45,0.00,CLR,CLR,0.00,WeatherDisplay:10.37,2013-06-03 22:24:00,
2013-06-03 18:29:00,71.8,49.3,30.03,NNW,338,5.8,5.8,45,0.00,CLR,CLR,0.00,WeatherDisplay:10.37,2013-06-03 22:29:00,
2013-06-03 18:34:00,69.8,48.1,30.03,NNW,338,5.8,5.8,46,0.00,CLR,CLR,0.00,WeatherDisplay:10.37,2013-06-03 22:34:00,
2013-06-03 18:39:00,67.8,47.4,30.03,NNW,338,6.9,6.9,48,0.00,CLR,CLR,0.00,WeatherDisplay:10.37,2013-06-03 22:39:00,
2013-06-03 18:44:00,67.1,47.8,30.03,WNW,292,5.8,5.8,50,0.00,CLR,CLR,0.00,WeatherDisplay:10.37,2013-06-03 22:44:00,
2013-06-03 18:50:00,66.9,48.2,30.03,NNW,338,5.4,5.4,51,0.00,CLR,CLR,0.00,WeatherDisplay:10.37,2013-06-03 22:50:00,
2013-06-03 18:55:00,66.9,48.2,30.03,NNW,338,6.9,6.9,51,0.00,CLR,CLR,0.00,WeatherDisplay:10.37,2013-06-03 22:55:00,
2013-06-03 19:00:00,67.3,48.5,30.03,ENE,68,2.3,2.3,51,0.00,CLR,CLR,0.00,WeatherDisplay:10.37,2013-06-03 23:00:00,
2013-06-03 19:05:00,66.7,47.5,30.03,NNW,338,5.8,5.8,50,0.00,CLR,CLR,0.00,WeatherDisplay:10.37,2013-06-03 23:05:00,
2013-06-03 19:10:00,66.6,47.9,30.03,NNW,338,5.8,5.8,51,0.00,CLR,CLR,0.00,WeatherDisplay:10.37,2013-06-03 23:10:00,
2013-06-03 19:16:00,66.4,48.2,30.03,NNW,338,5.6,5.6,52,0.00,CLR,CLR,0.00,WeatherDisplay:10.37,2013-06-03 23:16:00,
2013-06-03 19:21:00,66.4,48.2,30.03,WNW,292,4.6,4.6,52,0.00,CLR,CLR,0.00,WeatherDisplay:10.37,2013-06-03 23:21:00,
2013-06-03 19:26:00,66.7,48.0,30.03,WNW,292,8.1,8.1,51,0.00,CLR,CLR,0.00,WeatherDisplay:10.37,2013-06-03 23:26:00,
2013-06-03 19:31:00,66.9,48.2,30.03,NW,315,5.8,5.8,51,0.00,CLR,CLR,0.00,WeatherDisplay:10.37,2013-06-03 23:31:00,
2013-06-03 19:36:00,67.3,49.0,30.03,NNW,338,2.9,2.9,52,0.00,CLR,CLR,0.00,WeatherDisplay:10.37,2013-06-03 23:36:00,
2013-06-03 19:42:00,67.8,49.5,30.03,ENE,68,3.5,3.5,52,0.00,CLR,CLR,0.00,WeatherDisplay:10.37,2013-06-03 23:42:00,
2013-06-03 19:47:00,68.0,49.2,30.03,NNW,338,2.3,2.3,51,0.00,CLR,CLR,0.00,WeatherDisplay:10.37,2013-06-03 23:47:00,
2013-06-03 19:52:00,67.6,48.3,30.03,NNE,22,5.8,5.8,50,0.00,CLR,CLR,0.00,WeatherDisplay:10.37,2013-06-03 23:52:00,
2013-06-03 19:57:00,67.1,47.8,30.03,NNW,338,4.0,4.0,50,0.00,CLR,CLR,0.00,WeatherDisplay:10.37,2013-06-03 23:57:00,
2013-06-03 20:03:00,66.7,47.5,30.03,WSW,248,1.2,0.0,50,0.00,CLR,CLR,0.00,WeatherDisplay:10.37,2013-06-04 00:03:00,
2013-06-03 20:08:00,66.6,47.9,30.03,WNW,292,1.2,0.0,51,0.00,CLR,CLR,0.00,WeatherDisplay:10.37,2013-06-04 00:08:00,
2013-06-03 20:13:00,66.4,47.7,30.03,WNW,292,2.3,2.3,51,0.00,CLR,CLR,0.00,WeatherDisplay:10.37,2013-06-04 00:13:00,
2013-06-03 20:18:00,66.0,47.9,30.03,WNW,292,2.3,2.3,52,0.00,CLR,CLR,0.00,WeatherDisplay:10.37,2013-06-04 00:18:00,
2013-06-03 20:23:00,65.5,47.4,30.03,NNW,338,2.3,2.3,52,0.00,CLR,CLR,0.00,WeatherDisplay:10.37,2013-06-04 00:23:00,
2013-06-03 20:28:00,65.1,47.6,30.03,WNW,292,2.3,2.3,53,0.00,CLR,CLR,0.00,WeatherDisplay:10.37,2013-06-04 00:28:00,
2013-06-03 20:34:00,64.6,47.1,30.03,WNW,292,2.3,2.3,53,0.00,CLR,CLR,0.00,WeatherDisplay:10.37,2013-06-04 00:34:00,
2013-06-03 20:39:00,64.2,47.2,30.06,NNE,22,2.3,0.0,54,0.00,CLR,CLR,0.00,WeatherDisplay:10.37,2013-06-04 00:39:00,
2013-06-03 20:44:00,63.1,46.2,30.06,WNW,292,1.4,1.4,54,0.00,CLR,CLR,0.00,WeatherDisplay:10.37,2013-06-04 00:44:00,
2013-06-03 20:49:00,62.1,46.2,30.06,WNW,292,1.2,0.0,56,0.00,CLR,CLR,0.00,WeatherDisplay:10.37,2013-06-04 00:49:00,
2013-06-03 20:55:00,61.3,46.0,30.03,NNW,338,0.0,0.0,57,0.00,CLR,CLR,0.00,WeatherDisplay:10.37,2013-06-04 00:55:00,
2013-06-03 21:00:00,60.6,46.2,30.03,NNW,338,0.0,0.0,59,0.00,CLR,CLR,0.00,WeatherDisplay:10.37,2013-06-04 01:00:00,
2013-06-03 21:05:00,60.1,46.1,30.03,WNW,292,0.0,0.0,60,0.00,CLR,CLR,0.00,WeatherDisplay:10.37,2013-06-04 01:05:00,
2013-06-03 21:10:00,59.2,46.2,30.06,WSW,248,1.2,0.0,62,0.00,CLR,CLR,0.00,WeatherDisplay:10.37,2013-06-04 01:10:00,
2013-06-03 21:15:00,58.5,46.3,30.06,WNW,292,0.0,0.0,64,0.00,CLR,CLR,0.00,WeatherDisplay:10.37,2013-06-04 01:15:00,
2013-06-03 21:20:00,57.7,46.5,30.06,WNW,292,0.0,0.0,66,0.00,CLR,CLR,0.00,WeatherDisplay:10.37,2013-06-04 01:20:00,
2013-06-03 21:25:00,56.8,46.4,30.06,WNW,292,0.0,0.0,68,0.00,CLR,CLR,0.00,WeatherDisplay:10.37,2013-06-04 01:25:00,
2013-06-03 21:30:00,56.5,46.4,30.06,ENE,68,0.0,0.0,69,0.00,CLR,CLR,0.00,WeatherDisplay:10.37,2013-06-04 01:30:00,
2013-06-03 21:35:00,55.9,46.3,30.06,NNE,22,0.0,0.0,70,0.00,CLR,CLR,0.00,WeatherDisplay:10.37,2013-06-04 01:35:00,
2013-06-03 21:41:00,55.6,46.3,30.06,NNE,22,0.0,0.0,71,0.00,CLR,CLR,0.00,WeatherDisplay:10.37,2013-06-04 01:41:00,
2013-06-03 21:46:00,55.2,46.3,30.06,NNE,22,0.0,0.0,72,0.00,CLR,CLR,0.00,WeatherDisplay:10.37,2013-06-04 01:46:00,
2013-06-03 21:51:00,54.7,46.2,30.06,NNE,22,0.0,0.0,73,0.00,CLR,CLR,0.00,WeatherDisplay:10.37,2013-06-04 01:51:00,
2013-06-03 21:56:00,54.1,46.0,30.06,NNE,22,0.0,0.0,74,0.00,CLR,CLR,0.00,WeatherDisplay:10.37,2013-06-04 01:56:00,
2013-06-03 22:01:00,53.8,46.0,30.06,NNE,22,0.0,0.0,75,0.00,CLR,CLR,0.00,WeatherDisplay:10.37,2013-06-04 02:01:00,
2013-06-03 22:07:00,53.4,46.0,30.09,NNE,22,0.0,0.0,76,0.00,CLR,CLR,0.00,WeatherDisplay:10.37,2013-06-04 02:07:00,
2013-06-03 22:12:00,53.1,46.0,30.09,NNE,22,0.0,0.0,77,0.00,CLR,CLR,0.00,WeatherDisplay:10.37,2013-06-04 02:12:00,
2013-06-03 22:17:00,52.9,45.9,30.09,NNE,22,0.0,0.0,77,0.00,CLR,CLR,0.00,WeatherDisplay:10.37,2013-06-04 02:17:00,
2013-06-03 22:22:00,52.5,46.2,30.09,NNE,22,0.0,0.0,79,0.00,CLR,CLR,0.00,WeatherDisplay:10.37,2013-06-04 02:22:00,
2013-06-03 22:28:00,52.3,46.4,30.09,NNE,22,0.0,0.0,80,0.00,CLR,CLR,0.00,WeatherDisplay:10.37,2013-06-04 02:28:00,
2013-06-03 22:33:00,52.9,47.5,30.09,ESE,112,2.2,2.2,82,0.00,CLR,CLR,0.00,WeatherDisplay:10.37,2013-06-04 02:33:00,
2013-06-03 22:38:00,53.8,48.1,30.09,NNE,22,1.4,1.4,81,0.00,CLR,CLR,0.00,WeatherDisplay:10.37,2013-06-04 02:38:00,
2013-06-03 22:43:00,54.0,47.9,30.09,ESE,112,1.6,1.6,80,0.00,CLR,CLR,0.00,WeatherDisplay:10.37,2013-06-04 02:43:00,
2013-06-03 22:48:00,54.1,47.8,30.09,NNW,338,3.5,3.5,79,0.00,CLR,CLR,0.00,WeatherDisplay:10.37,2013-06-04 02:48:00,
2013-06-03 22:53:00,54.5,47.8,30.09,ENE,68,2.4,0.0,78,0.00,CLR,CLR,0.00,WeatherDisplay:10.37,2013-06-04 02:53:00,
2013-06-03 22:58:00,54.7,47.6,30.09,ENE,68,2.3,2.3,77,0.00,CLR,CLR,0.00,WeatherDisplay:10.37,2013-06-04 02:58:00,
2013-06-03 23:03:00,54.5,47.1,30.09,NE,45,2.3,2.3,76,0.00,CLR,CLR,0.00,WeatherDisplay:10.37,2013-06-04 03:03:00,
2013-06-03 23:08:00,54.3,46.6,30.09,East,90,1.4,0.0,75,0.00,CLR,CLR,0.00,WeatherDisplay:10.37,2013-06-04 03:08:00,
2013-06-03 23:14:00,54.0,46.2,30.09,ENE,68,1.2,0.0,75,0.00,CLR,CLR,0.00,WeatherDisplay:10.37,2013-06-04 03:14:00,
2013-06-03 23:19:00,53.8,46.4,30.09,ENE,68,2.3,2.3,76,0.00,CLR,CLR,0.00,WeatherDisplay:10.37,2013-06-04 03:19:00,
2013-06-03 23:24:00,53.6,46.2,30.09,ENE,68,1.2,1.2,76,0.00,CLR,CLR,0.00,WeatherDisplay:10.37,2013-06-04 03:24:00,
2013-06-03 23:29:00,53.2,46.2,30.09,NNE,22,1.2,1.2,77,0.00,CLR,CLR,0.00,WeatherDisplay:10.37,2013-06-04 03:29:00,
2013-06-03 23:34:00,53.2,46.2,30.09,ENE,68,1.4,1.4,77,0.00,CLR,CLR,0.00,WeatherDisplay:10.37,2013-06-04 03:34:00,
2013-06-03 23:39:00,53.4,46.0,30.09,ESE,112,2.3,2.3,76,0.00,CLR,CLR,0.00,WeatherDisplay:10.37,2013-06-04 03:39:00,
2013-06-03 23:44:00,53.4,45.7,30.09,ENE,68,2.3,2.3,75,0.00,CLR,CLR,0.00,WeatherDisplay:10.37,2013-06-04 03:44:00,
2013-06-03 23:50:00,53.4,45.3,30.09,ESE,112,1.2,1.2,74,0.00,CLR,CLR,0.00,WeatherDisplay:10.37,2013-06-04 03:50:00,
2013-06-03 23:55:00,53.2,44.8,30.09,NE,45,2.3,2.3,73,0.00,CLR,CLR,0.00,WeatherDisplay:10.37,2013-06-04 03:55:00,